Weather History for Lexington, KY

Change the Weather History Date:

Wednesday, May 22, 2013

  Actual Average Record
Temperature  
Mean Temperature 70 °F 66 °F  
Max Temperature 77 °F 76 °F 96 °F (1941)
Min Temperature 63 °F 56 °F 37 °F (1997)
Degree Days  
Heating Degree Days 0 3  
Month to date heating degree days 62 94  
Since 1 July heating degree days 4648 4583  
Cooling Degree Days 5 3  
Month to date cooling degree days 69 45  
Year to date cooling degree days 99 67  
Growing Degree Days 20 (Base 50)    
Moisture  
Dew Point 62 °F    
Average Humidity 79    
Maximum Humidity 93    
Minimum Humidity 64    
Precipitation  
Precipitation 0.11 in 0.16 in 2.30 in (1973)
Month to date precipitation 4.91 3.70  
Year to date precipitation 21.11 17.77  
Snow  
Snow 0.00 in 0.00 in - ()
Month to date snowfall 0.0 0.0  
Since 1 July snowfall 12.5 13.0  
Snow Depth 0.00 in    
Sea Level Pressure  
Sea Level Pressure 29.84 in    
Wind  
Wind Speed 9 mph (SSW)    
Max Wind Speed 18 mph    
Max Gust Speed 22 mph    
Visibility 10 miles    
Events Rain    
T = Trace of Precipitation, MM = Missing Value Source: NWS Daily Summary

Daily Weather History Graph

Daily Weather History Graph

Search for Another Location

Airport:

Trip Planner

Search our weather history database for the weather conditions in past years. The results will help you decide how hot, cold, wet, or windy it might be!

Date:

Astronomy

May. 22, 2013 Rise Set
Actual Time 6:22 AM EDT 8:48 PM EDT
Civil Twilight 5:52 AM EDT 9:18 PM EDT
Nautical Twilight 5:15 AM EDT 9:55 PM EDT
Astronomical Twilight 4:34 AM EDT 10:37 PM EDT
Moon 6:11 PM EDT (5/22) 4:23 AM EDT (5/22)
Length of Visible Light 15h 26m
Length of Day
14h 25m
Waxing Gibbous, 91% of the Moon is Illuminated
May 22
Waxing Gibbous
May 25
Full
May 31
Last Quarter
Jun 8
New
Jun 16
First Quarter

Hourly Weather History & Observations

Time (EDT) Temp. Dew Point Humidity Pressure Visibility Wind Dir Wind Speed Gust Speed Precip Events Conditions
12:54 AM 66.0 °F 61.0 °F 84% 29.89 in 10.0 mi South 6.9 mph - N/A   Overcast
1:54 AM 64.9 °F 61.0 °F 87% 29.87 in 10.0 mi South 9.2 mph - 0.00 in   Clear
2:54 AM 64.9 °F 61.0 °F 87% 29.85 in 10.0 mi South 8.1 mph - N/A   Partly Cloudy
3:54 AM 64.9 °F 61.0 °F 87% 29.82 in 10.0 mi South 9.2 mph - N/A   Clear
4:54 AM 64.9 °F 61.0 °F 87% 29.83 in 10.0 mi South 9.2 mph - N/A   Clear
5:54 AM 64.0 °F 61.0 °F 90% 29.84 in 10.0 mi South 8.1 mph - N/A   Clear
6:54 AM 63.0 °F 61.0 °F 93% 29.85 in 10.0 mi South 5.8 mph - N/A   Partly Cloudy
7:54 AM 66.9 °F 62.1 °F 84% 29.85 in 10.0 mi South 9.2 mph - N/A   Clear
8:54 AM 70.0 °F 63.0 °F 78% 29.84 in 10.0 mi South 11.5 mph - N/A   Clear
9:54 AM 72.0 °F 64.0 °F 76% 29.86 in 10.0 mi SW 10.4 mph 18.4 mph N/A   Partly Cloudy
10:54 AM 73.9 °F 64.0 °F 71% 29.87 in 10.0 mi SSW 11.5 mph - N/A   Mostly Cloudy
11:54 AM 75.9 °F 62.1 °F 62% 29.86 in 10.0 mi South 15.0 mph - N/A   Scattered Clouds
12:54 PM 73.9 °F 62.1 °F 66% 29.87 in 10.0 mi SSW 13.8 mph 20.7 mph N/A   Overcast
1:54 PM 73.0 °F 63.0 °F 71% 29.86 in 10.0 mi SSW 6.9 mph - 0.00 in   Overcast
2:54 PM 73.0 °F 63.0 °F 71% 29.85 in 10.0 mi SSW 10.4 mph - 0.00 in   Overcast
3:54 PM 73.0 °F 64.9 °F 76% 29.84 in 10.0 mi SSW 5.8 mph - 0.00 in   Overcast
4:54 PM 73.9 °F 64.9 °F 73% 29.79 in 10.0 mi South 9.2 mph - 0.00 in   Mostly Cloudy
5:54 PM 75.0 °F 64.0 °F 69% 29.79 in 10.0 mi SSW 13.8 mph - N/A   Mostly Cloudy
6:54 PM 69.1 °F 61.0 °F 75% 29.81 in 10.0 mi SW 16.1 mph 20.7 mph 0.07 in Rain Light Rain
7:54 PM 66.0 °F 63.0 °F 90% 29.82 in 10.0 mi South 6.9 mph - 0.04 in   Mostly Cloudy
8:54 PM 66.0 °F 63.0 °F 90% 29.83 in 10.0 mi SSW 5.8 mph - N/A   Mostly Cloudy
9:54 PM 64.9 °F 62.1 °F 90% 29.83 in 10.0 mi South 5.8 mph - N/A   Mostly Cloudy
10:54 PM 66.0 °F 63.0 °F 90% 29.83 in 10.0 mi SW 8.1 mph - N/A   Mostly Cloudy
11:54 PM 64.9 °F 62.1 °F 90% 29.84 in 10.0 mi SSW 6.9 mph - N/A   Clear